Tuscaloosa, AL

9:07 AM CDT on June 26, 2017 (GMT -0500)
Tuscaloosa Municipal

Weather History for KTCL - October, 2013

Change the Weather History Date:

Tuesday, October 15, 2013

  Actual Average Record
Temperature  
Mean Temperature 70 °F 65 °F  
Max Temperature 80 °F 77 °F 91 °F (1962)
Min Temperature 60 °F 52 °F 34 °F (1987)
Degree Days  
Heating Degree Days 0 3  
Month to date heating degree days 0 30  
Since 1 July heating degree days 0 37  
Cooling Degree Days 4    
Growing Degree Days 20 (Base 50)    
Moisture  
Dew Point 61 °F    
Average Humidity 76    
Maximum Humidity 97    
Minimum Humidity 54    
Precipitation  
Precipitation 0.00 in 0.11 in 1.21 in (1964)
Month to date precipitation 0.09 1.72  
Year to date precipitation 40.11 41.11  
Sea Level Pressure  
Sea Level Pressure 30.07 in    
Wind  
Wind Speed 3 mph (SE)    
Max Wind Speed 10 mph    
Max Gust Speed 15 mph    
Visibility 9 miles    
Events      
T = Trace of Precipitation, MM = Missing Value Source: NWS Daily Summary

Daily Weather History Graph

Daily Weather History Graph

Search for Another Location

Airport or City:

Trip Planner

Search our weather history database for the weather conditions in past years. The results will help you decide how hot, cold, wet, or windy it might be!

Date:

Astronomy

Oct. 15, 2013 Rise Set
Actual Time 6:55 AM CDT 6:16 PM CDT
Civil Twilight 6:30 AM CDT 6:41 PM CDT
Nautical Twilight 6:01 AM CDT 7:10 PM CDT
Astronomical Twilight 5:32 AM CDT 7:39 PM CDT
Moon 4:13 PM CDT (10/15) 3:27 AM CDT (10/15)
Length of Visible Light 12h 11m
Length of Day
11h 21m
Waxing Gibbous, 88% of the Moon is Illuminated
Oct 15
Waxing Gibbous
Oct 18
Full
Oct 26
Last Quarter
Nov 3
New
Nov 9
First Quarter

Hourly Weather History & Observations

Time (CDT) Temp. Dew Point Humidity Pressure Visibility Wind Dir Wind Speed Gust Speed Precip Events Conditions
12:53 AM 68.0 °F 61.0 °F 78% 30.10 in 10.0 mi East 4.6 mph - N/A   Clear
1:53 AM 64.9 °F 61.0 °F 87% 30.10 in 6.0 mi ENE 3.5 mph - N/A   Clear
2:53 AM 64.9 °F 61.0 °F 87% 30.09 in 9.0 mi NE 3.5 mph - N/A   Clear
3:53 AM 63.0 °F 61.0 °F 93% 30.09 in 9.0 mi NE 3.5 mph - N/A   Clear
4:53 AM 62.1 °F 60.1 °F 93% 30.09 in 9.0 mi Calm Calm - N/A   Clear
5:53 AM 61.0 °F 59.0 °F 93% 30.11 in 9.0 mi Calm Calm - N/A   Clear
6:15 AM 60.8 °F 59.0 °F 94% 30.11 in 1.8 mi Calm Calm - N/A   Clear
6:26 AM 60.8 °F 59.0 °F 94% 30.10 in 3.0 mi Calm Calm - N/A   Clear
6:53 AM 61.0 °F 59.0 °F 93% 30.10 in 6.0 mi Calm Calm - N/A   Clear
7:53 AM 64.9 °F 61.0 °F 87% 30.10 in 8.0 mi NE 3.5 mph - N/A   Clear
8:53 AM 66.9 °F 62.1 °F 84% 30.12 in 9.0 mi Calm Calm - N/A   Clear
9:53 AM 71.1 °F 62.1 °F 73% 30.11 in 10.0 mi SE 9.2 mph - N/A   Clear
10:53 AM 73.9 °F 62.1 °F 66% 30.09 in 10.0 mi Variable 6.9 mph - N/A   Partly Cloudy
11:14 AM 75.2 °F 62.6 °F 65% 30.10 in 10.0 mi Variable 6.9 mph - N/A   Mostly Cloudy
11:25 AM 73.4 °F 62.6 °F 69% 30.09 in 10.0 mi SE 6.9 mph - N/A   Scattered Clouds
11:33 AM 73.4 °F 62.6 °F 69% 30.09 in 10.0 mi SE 6.9 mph - N/A   Mostly Cloudy
11:53 AM 75.0 °F 61.0 °F 62% 30.08 in 10.0 mi South 4.6 mph - N/A   Mostly Cloudy
12:40 PM 77.0 °F 60.8 °F 57% 30.06 in 10.0 mi South 4.6 mph - N/A   Mostly Cloudy
12:53 PM 75.9 °F 61.0 °F 60% 30.06 in 10.0 mi South 4.6 mph - N/A   Overcast
1:53 PM 78.1 °F 61.0 °F 56% 30.03 in 10.0 mi Calm Calm - N/A   Mostly Cloudy
2:53 PM 78.1 °F 61.0 °F 56% 30.01 in 10.0 mi South 3.5 mph - N/A   Partly Cloudy
3:53 PM 79.0 °F 61.0 °F 54% 30.01 in 10.0 mi SSW 5.8 mph - N/A   Mostly Cloudy
4:53 PM 79.0 °F 60.1 °F 52% 29.99 in 10.0 mi ENE 3.5 mph - N/A   Clear
5:53 PM 75.9 °F 62.1 °F 62% 30.00 in 10.0 mi South 4.6 mph - N/A   Mostly Cloudy
6:53 PM 73.9 °F 62.1 °F 66% 29.99 in 10.0 mi Calm Calm - N/A   Partly Cloudy
7:53 PM 73.0 °F 63.0 °F 71% 30.02 in 10.0 mi SE 5.8 mph - N/A   Clear
8:53 PM 72.0 °F 62.1 °F 71% 30.03 in 10.0 mi East 6.9 mph - N/A   Clear
9:53 PM 71.1 °F 62.1 °F 73% 30.04 in 10.0 mi SE 6.9 mph - N/A   Clear
10:53 PM 69.1 °F 62.1 °F 78% 30.04 in 10.0 mi Calm Calm - N/A   Scattered Clouds
11:53 PM 70.0 °F 62.1 °F 76% 30.02 in 10.0 mi SE 4.6 mph - N/A   Clear